EW5254 Weather Reports


Display with metric or nautical units.
time (UTC)temp
F
wind
direction
speed
MPH
gust
MPH
rain 1hr
in
rain 24hr
in
rain mn
in
humidity
%
barometer
mb
20260906123004 68 232 0.0 0.0 0.00 0.00 0.00 76 1001.7
20260906121503 68 232 0.0 0.0 0.00 0.00 0.00 75 1001.7
20260906120004 68 232 0.0 2.0 0.00 0.00 0.00 75 1001.7
20260906114502 68 232 2.0 3.0 0.00 0.00 0.00 74 1001.6
20260906113105 69 232 3.0 4.0 0.00 0.00 0.00 71 1001.5
20260906111559 69 92 0.0 2.0 0.00 0.00 0.00 71 1001.4
20260906110057 70 92 1.0 3.0 0.00 0.00 0.00 68 1001.3
20260906104613 70 92 0.0 3.0 0.00 0.00 0.00 68 1001.3
20260906103054 70 92 1.0 3.0 0.00 0.00 0.00 68 1001.3
20260906101554 70 119 3.0 7.0 0.00 0.00 0.00 68 1001.3
20260906100053 70 162 4.0 8.0 0.00 0.00 0.00 71 1001.0
20260906094631 70 141 6.0 10.0 0.00 0.00 0.00 71 1001.1
20260906093102 71 132 6.0 12.0 0.00 0.00 0.00 72 1001.1
20260906091551 70 164 7.0 11.0 0.00 0.00 0.00 73 1001.1
20260906090049 70 170 6.0 12.0 0.00 0.00 0.00 76 1001.1
20260906084549 70 184 5.0 11.0 0.00 0.00 0.00 75 1001.3
20260906083046 70 163 7.0 12.0 0.00 0.00 0.00 76 1001.2
20260906081553 70 160 9.0 15.0 0.00 0.00 0.00 76 1001.2
20260906080051 70 134 10.0 17.0 0.00 0.00 0.00 77 1001.3
20260906074543 70 197 8.0 14.0 0.00 0.00 0.00 77 1001.5
20260906073040 71 141 10.0 17.0 0.00 0.00 0.00 76 1001.7
20260906071538 71 146 11.0 17.0 0.00 0.00 0.00 76 1001.8
20260906070037 71 139 11.0 17.0 0.00 0.00 0.00 76 1001.9
20260906064536 71 145 10.0 17.0 0.00 0.00 0.00 76 1002.0
20260906063036 71 135 10.0 15.0 0.00 0.00 0.00 75 1002.0
20260906061537 72 153 9.0 16.0 0.00 0.00 0.00 74 1002.2
20260906060028 72 170 8.0 16.0 0.00 0.00 0.00 73 1002.4
20260906054527 72 182 9.0 15.0 0.00 0.00 0.00 73 1002.3
20260906053024 72 163 6.0 19.0 0.00 0.00 0.00 72 1002.3
20260906051522 73 169 10.0 19.0 0.00 0.00 0.00 71 1002.3
20260906050021 74 176 9.0 20.0 0.00 0.00 0.00 67 1002.4
20260906044524 75 123 8.0 17.0 0.00 0.00 0.00 63 1002.4
20260906043017 75 161 10.0 14.0 0.00 0.00 0.00 62 1002.5
20260906041517 75 181 6.0 20.0 0.00 0.00 0.00 61 1002.4
20260906040019 76 157 9.0 18.0 0.00 0.00 0.00 60 1002.3
20260906034516 77 174 11.0 18.0 0.00 0.00 0.00 58 1002.1
20260906033015 77 138 8.0 15.0 0.00 0.00 0.00 57 1002.0
20260906031526 76 161 5.0 10.0 0.00 0.00 0.00 57 1001.8
20260906030016 76 290 2.0 4.0 0.00 0.00 0.00 56 1001.5
20260906024514 77 290 0.0 0.0 0.00 0.00 0.00 52 1001.4
20260906023018 77 290 0.0 0.0 0.00 0.00 0.00 51 1001.1
20260906021512 77 290 0.0 0.0 0.00 0.00 0.00 53 1000.8
20260906020012 76 290 0.0 0.0 0.00 0.00 0.00 55 1000.5
20260906014512 76 290 0.0 0.0 0.00 0.00 0.00 57 1000.3
20260906013010 76 290 0.0 0.0 0.00 0.00 0.00 60 1000.2
20260906011514 76 290 0.0 2.0 0.00 0.00 0.00 58 1000.0
20260906010110 76 290 0.0 2.0 0.00 0.00 0.00 58 1000.1
20260906004508 76 290 1.0 4.0 0.00 0.00 0.00 62 1000.4
20260906003018 76 290 2.0 5.0 0.00 0.00 0.00 63 1000.4
20260906001508 76 290 0.0 4.0 0.00 0.00 0.00 61 1000.4
20260906000008 77 290 2.0 7.0 0.00 0.00 0.00 60 1000.2
20260905234509 77 290 3.0 9.0 0.00 0.00 0.00 58 1000.1
20260905233008 79 289 6.0 10.0 0.00 0.00 0.00 55 1000.1
20260905231506 81 303 6.0 11.0 0.00 0.00 0.00 54 1000.3
20260905230005 82 254 4.0 8.0 0.00 0.00 0.00 49 1000.2
20260905224506 83 257 6.0 10.0 0.00 0.00 0.00 46 1000.1
20260905223015 84 171 7.0 11.0 0.00 0.00 0.00 42 999.9
20260905221512 83 196 6.0 11.0 0.00 0.00 0.00 43 999.6
20260905220004 81 248 6.0 11.0 0.00 0.00 0.00 50 999.7
20260905214505 83 251 4.0 9.0 0.00 0.00 0.00 46 999.7
20260905213002 84 188 5.0 11.0 0.00 0.00 0.00 39 999.6
20260905211503 85 132 6.0 12.0 0.00 0.00 0.00 43 999.6
20260905210110 88 126 6.0 17.0 0.00 0.00 0.00 36 999.6
20260905204603 89 124 7.0 13.0 0.00 0.00 0.00 34 999.9
20260905203057 87 221 7.0 14.0 0.00 0.00 0.00 39 1000.3
20260905201603 87 185 8.0 17.0 0.00 0.00 0.00 38 1000.7
20260905200111 84 163 7.0 12.0 0.00 0.00 0.00 42 1001.2
20260905194551 83 157 9.0 13.0 0.00 0.00 0.00 43 1001.2
20260905193050 84 130 9.0 17.0 0.00 0.00 0.00 42 1001.2
20260905191551 87 82 5.0 15.0 0.00 0.00 0.00 38 1001.5
20260905190050 86 298 6.0 13.0 0.00 0.00 0.00 37 1001.6
20260905184550 88 124 3.0 9.0 0.00 0.00 0.00 36 1001.8
20260905183049 88 61 2.0 11.0 0.00 0.00 0.00 38 1002.1
20260905181545 86 314 4.0 9.0 0.00 0.00 0.00 41 1002.3
20260905180046 85 49 5.0 12.0 0.00 0.00 0.00 41 1002.6
20260905174543 86 328 3.0 9.0 0.00 0.00 0.00 40 1002.7
20260905173044 86 250 4.0 9.0 0.00 0.00 0.00 40 1002.7
20260905171555 85 306 3.0 10.0 0.00 0.00 0.00 43 1002.8
20260905170036 84 49 2.0 8.0 0.00 0.00 0.00 44 1002.7
20260905164538 83 305 5.0 12.0 0.00 0.00 0.00 46 1002.7
20260905163031 82 265 5.0 10.0 0.00 0.00 0.00 48 1002.8
20260905161537 81 289 1.0 10.0 0.00 0.00 0.00 50 1002.8
20260905160037 81 240 5.0 11.0 0.00 0.00 0.00 51 1002.9
20260905154544 80 273 5.0 10.0 0.00 0.00 0.00 53 1002.8
20260905153026 80 277 6.0 9.0 0.00 0.00 0.00 53 1002.7
20260905151519 79 257 5.0 8.0 0.00 0.00 0.00 55 1002.8
20260905150015 78 242 4.0 10.0 0.00 0.00 0.00 57 1002.7
20260905144512 76 220 4.0 9.0 0.00 0.00 0.00 59 1002.7
20260905143009 75 252 6.0 10.0 0.00 0.00 0.00 61 1002.7
20260905141507 74 269 5.0 9.0 0.00 0.00 0.00 63 1002.6
20260905140006 74 228 6.0 9.0 0.00 0.00 0.00 64 1002.5
20260905134507 72 242 5.0 9.0 0.00 0.00 0.00 67 1002.3
20260905133003 71 227 5.0 7.0 0.00 0.00 0.00 68 1002.3
20260905131502 71 223 5.0 8.0 0.00 0.00 0.00 70 1002.1
20260905130100 70 219 5.0 7.0 0.00 0.00 0.00 72 1002.0
20260905124559 69 202 5.0 8.0 0.00 0.00 0.00 73 1001.9